LRCL Weather Reports


time (UTC)temp
C
wind
direction
speed
KPH
gust
KPH
rain 1hr
cm
rain 24hr
cm
rain mn
cm
humidity
%
barometer
mb
20260506093308 25 140 20.9 0.0 0.00 0.00 0.00 32 1013.0
20260506091808 22 110 17.7 0.0 0.00 0.00 0.00 38 1013.0
20260506090308 22 110 17.7 0.0 0.00 0.00 0.00 38 1013.0
20260506084808 22 80 12.9 0.0 0.00 0.00 0.00 41 1013.0
20260506083308 22 80 12.9 0.0 0.00 0.00 0.00 41 1013.0
20260506080308 21 60 9.7 0.0 0.00 0.00 0.00 43 1013.0
20260506073308 17 60 8.0 0.0 0.00 0.00 0.00 49 1014.0
20260506071808 17 50 4.8 0.0 0.00 0.00 0.00 49 1014.0
20260506070308 17 50 4.8 0.0 0.00 0.00 0.00 49 1014.0
20260506061808 12 90 8.0 0.0 0.00 0.00 0.00 59 1014.0
20260506060309 12 90 8.0 0.0 0.00 0.00 0.00 59 1014.0
20260506050322 10 70 3.2 0.0 0.00 0.00 0.00 71 1014.0
20260506044823 7 70 3.2 0.0 0.00 0.00 0.00 76 1014.0
20260506043312 7 70 3.2 0.0 0.00 0.00 0.00 76 1014.0
20260506041808 7 90 4.8 0.0 0.00 0.00 0.00 81 1014.0
20260506040308 7 90 4.8 0.0 0.00 0.00 0.00 81 1014.0
20260506034808 6 70 1.6 0.0 0.00 0.00 0.00 87 1013.0
20260506033308 6 70 1.6 0.0 0.00 0.00 0.00 87 1013.0
20260506031808 6 0 0.0 0.0 0.00 0.00 0.00 87 1013.0
20260506030307 6 0 0.0 0.0 0.00 0.00 0.00 87 1013.0
20260506024808 7 0 0.0 0.0 0.00 0.00 0.00 87 1013.0
20260506023308 7 0 0.0 0.0 0.00 0.00 0.00 87 1013.0
20260506021808 7 0 0.0 0.0 0.00 0.00 0.00 81 1013.0
20260506020308 7 0 0.0 0.0 0.00 0.00 0.00 81 1013.0
20260506014807 7 0 0.0 0.0 0.00 0.00 0.00 76 1013.0
20260506013308 7 0 0.0 0.0 0.00 0.00 0.00 76 1013.0
20260506011808 7 100 8.0 0.0 0.00 0.00 0.00 71 1013.0
20260506010308 7 100 8.0 0.0 0.00 0.00 0.00 71 1013.0
20260506004808 8 0 0.0 0.0 0.00 0.00 0.00 76 1013.0
20260506003423 8 0 0.0 0.0 0.00 0.00 0.00 76 1013.0
20260506001808 7 1.6 0.0 0.00 0.00 0.00 76 1013.0
20260506000309 7 1.6 0.0 0.00 0.00 0.00 76 1013.0
20260505234808 11 240 3.2 0.0 0.00 0.00 0.00 62 1013.0
20260505233307 11 240 3.2 0.0 0.00 0.00 0.00 62 1013.0
20260505231808 8 250 8.0 0.0 0.00 0.00 0.00 66 1013.0
20260505230308 8 250 8.0 0.0 0.00 0.00 0.00 66 1013.0
20260505224808 10 240 4.8 0.0 0.00 0.00 0.00 62 1013.0
20260505223308 10 240 4.8 0.0 0.00 0.00 0.00 62 1013.0
20260505221805 11 260 11.3 0.0 0.00 0.00 0.00 58 1013.0
20260505220308 11 260 11.3 0.0 0.00 0.00 0.00 58 1013.0
20260505214809 12 250 8.0 0.0 0.00 0.00 0.00 58 1013.0
20260505213308 12 250 8.0 0.0 0.00 0.00 0.00 58 1013.0
20260505211807 12 280 8.0 0.0 0.00 0.00 0.00 58 1012.0
20260505210308 12 280 8.0 0.0 0.00 0.00 0.00 58 1012.0
20260505204810 12 260 4.8 0.0 0.00 0.00 0.00 55 1012.0
20260505203307 12 260 4.8 0.0 0.00 0.00 0.00 55 1012.0
20260505201839 12 270 9.7 0.0 0.00 0.00 0.00 54 1012.0
20260505200308 12 270 9.7 0.0 0.00 0.00 0.00 54 1012.0
20260505194808 12 0 0.0 0.0 0.00 0.00 0.00 55 1012.0
20260505193308 12 0 0.0 0.0 0.00 0.00 0.00 55 1012.0
20260505191808 15 3.2 0.0 0.00 0.00 0.00 55 1012.0
20260505190307 15 3.2 0.0 0.00 0.00 0.00 55 1012.0
20260505184808 16 1.6 0.0 0.00 0.00 0.00 42 1012.0
20260505183308 16 1.6 0.0 0.00 0.00 0.00 42 1012.0
20260505181808 17 3.2 0.0 0.00 0.00 0.00 42 1012.0
20260505180308 17 3.2 0.0 0.00 0.00 0.00 42 1012.0
20260505174805 20 0 0.0 0.0 0.00 0.00 0.00 30 1011.0
20260505173308 20 0 0.0 0.0 0.00 0.00 0.00 30 1011.0
20260505171808 23 130 4.8 0.0 0.00 0.00 0.00 22 1011.0
20260505170308 23 130 4.8 0.0 0.00 0.00 0.00 22 1011.0
20260505164808 25 140 9.7 0.0 0.00 0.00 0.00 19 1011.0
20260505163308 25 140 9.7 0.0 0.00 0.00 0.00 19 1011.0
20260505161808 25 150 9.7 0.0 0.00 0.00 0.00 21 1012.0
20260505160308 25 150 9.7 0.0 0.00 0.00 0.00 21 1012.0
20260505153308 26 140 9.7 0.0 0.00 0.00 0.00 18 1012.0
20260505151816 26 120 12.9 0.0 0.00 0.00 0.00 16 1012.0
20260505150308 26 120 12.9 0.0 0.00 0.00 0.00 16 1012.0
20260505140307 26 160 9.7 0.0 0.00 0.00 0.00 18 1013.0
20260505130308 26 130 12.9 0.0 0.00 0.00 0.00 21 1013.0
20260505124808 26 120 12.9 0.0 0.00 0.00 0.00 20 1013.0
20260505123308 26 120 12.9 0.0 0.00 0.00 0.00 20 1013.0
20260505121808 26 110 11.3 0.0 0.00 0.00 0.00 20 1014.0
20260505120312 25 120 9.7 0.0 0.00 0.00 0.00 26 1014.0
20260505114815 25 120 9.7 0.0 0.00 0.00 0.00 26 1014.0
20260505113338 25 120 9.7 0.0 0.00 0.00 0.00 26 1014.0
20260505111808 25 80 9.7 0.0 0.00 0.00 0.00 26 1015.0
20260505110308 25 80 9.7 0.0 0.00 0.00 0.00 26 1015.0
20260505101809 23 100 8.0 0.0 0.00 0.00 0.00 27 1015.0
20260505100308 23 100 8.0 0.0 0.00 0.00 0.00 27 1015.0
20260505094809 22 120 9.7 0.0 0.00 0.00 0.00 29 1015.0